EW8108 Weather Reports


time (UTC)temp
F
wind
direction
speed
knots
gust
knots
rain 1hr
in
rain 24hr
in
rain mn
in
humidity
%
barometer
mb
20260506124332 75 257 0.0 0.0 0.00 0.00 0.00 1 970.6
20260506123333 75 257 0.0 0.0 0.00 0.00 0.00 1 970.4
20260506122315 75 257 0.0 0.0 0.00 0.00 0.00 1 970.3
20260506121329 75 257 0.0 0.0 0.00 0.00 0.00 1 970.3
20260506120318 75 257 0.0 0.0 0.00 0.00 0.00 1 970.4
20260506114122 75 257 0.0 0.0 0.00 0.00 0.00 1 970.3
20260506113143 76 257 0.0 0.0 0.00 0.00 0.00 1 970.5
20260506112119 76 257 0.0 0.0 0.00 0.00 0.00 1 970.6
20260506111123 76 257 0.0 0.0 0.00 0.00 0.00 1 970.7
20260506110139 76 257 0.0 0.0 0.00 0.00 0.00 1 970.5
20260506105117 76 257 0.0 0.0 0.00 0.00 0.00 1 970.5
20260506104109 76 257 0.0 0.0 0.00 0.00 0.00 1 970.4
20260506103127 76 257 0.0 0.0 0.00 0.00 0.00 1 970.3
20260506102133 76 257 0.0 0.0 0.00 0.00 0.00 1 970.2
20260506101130 76 257 0.0 0.0 0.00 0.00 0.00 1 970.2
20260506100148 76 257 0.0 0.0 0.00 0.00 0.00 1 970.0
20260506094010 76 257 0.0 1.7 0.00 0.00 0.00 1 969.8
20260506092952 76 257 0.0 0.0 0.00 0.00 0.00 1 969.6
20260506091922 76 254 0.0 0.9 0.00 0.00 0.00 1 969.5
20260506090926 76 256 0.0 1.7 0.00 0.00 0.00 1 969.4
20260506085854 76 259 0.0 0.0 0.00 0.00 0.00 1 969.2
20260506084858 76 264 0.0 0.0 0.00 0.00 0.00 1 969.2
20260506082726 76 246 0.0 3.5 0.00 0.00 0.00 1 969.3
20260506081701 76 249 0.0 1.7 0.00 0.00 0.00 1 969.2
20260506072533 76 269 0.0 0.0 0.00 0.00 0.00 1 969.6
20260506071534 76 271 0.0 7.0 0.00 0.00 0.00 1 969.8
20260506070532 76 257 0.0 2.6 0.00 0.00 0.00 1 969.6
20260506062432 76 244 0.0 6.1 0.00 0.00 0.00 1 969.5
20260506061426 76 238 0.0 0.0 0.00 0.00 0.00 1 969.6
20260506060437 76 262 0.0 0.0 0.00 0.00 0.00 1 969.5
20260506045041 77 239 0.0 3.5 0.00 0.00 0.00 1 969.6
20260506041732 77 226 0.0 0.0 0.00 0.00 0.00 1 969.5
20260506040755 77 226 0.0 2.6 0.00 0.00 0.00 1 969.5
20260506035757 77 225 0.0 0.0 0.00 0.00 0.00 1 969.3
20260506034730 77 225 0.0 0.9 0.00 0.00 0.00 1 969.3
20260506033709 77 225 0.0 0.9 0.00 0.00 0.00 1 969.1
20260506032654 76 225 0.0 0.0 0.00 0.00 0.00 1 969.0
20260506030453 76 225 0.0 0.0 0.00 0.00 0.00 1 968.9
20260506023217 77 225 0.0 0.0 0.00 0.00 0.00 1 968.4
20260506022233 77 225 0.0 0.0 0.00 0.00 0.00 1 968.1
20260506021223 77 225 0.0 0.0 0.00 0.00 0.00 1 968.0
20260506020232 77 225 0.0 0.0 0.00 0.00 0.00 5 967.9
20260506015244 77 225 0.0 0.0 0.00 0.00 0.00 10 967.7
20260506014213 77 229 0.0 0.0 0.00 0.00 0.00 19 967.5
20260506013158 78 229 0.0 0.0 0.00 0.00 0.00 30 967.6
20260506012137 78 229 0.0 0.0 0.00 0.00 0.00 38 967.7
20260506011157 78 229 0.0 0.0 0.00 0.00 0.00 45 967.5
20260506010143 79 229 0.0 0.0 0.00 0.00 0.00 50 967.4
20260506005152 79 229 0.0 0.0 0.00 0.00 0.00 53 967.5
20260506004153 80 228 0.0 0.0 0.00 0.00 0.00 54 967.5
20260506003132 80 228 0.0 0.0 0.00 0.00 0.00 56 967.5
20260506002118 80 227 0.0 2.6 0.00 0.00 0.00 58 967.5
20260506001107 80 229 0.0 0.0 0.00 0.00 0.00 59 967.6
20260506000108 80 231 0.0 0.9 0.00 0.00 0.00 61 967.5
20260505235133 80 229 0.0 4.3 0.00 0.00 0.00 61 967.5
20260505234105 81 279 0.0 0.9 0.00 0.00 0.00 61 967.3
20260505233104 81 281 0.0 0.9 0.00 0.00 0.00 61 967.2
20260505232032 81 248 0.0 1.7 0.00 0.00 0.00 62 967.2
20260505231049 82 236 0.0 3.5 0.00 0.00 0.00 62 967.1
20260505230051 82 244 0.0 3.5 0.00 0.00 0.00 62 967.1
20260505225058 82 234 0.0 3.5 0.00 0.00 0.00 62 967.1
20260505224034 83 265 0.0 3.5 0.00 0.00 0.00 62 967.1
20260505223042 83 261 0.0 3.5 0.00 0.00 0.00 62 967.0
20260505222048 84 234 0.0 3.5 0.00 0.00 0.00 61 966.9
20260505221040 84 256 0.0 1.7 0.00 0.00 0.00 61 967.0
20260505220020 84 246 0.0 3.5 0.00 0.00 0.00 61 967.1
20260505214954 85 252 0.0 2.6 0.00 0.00 0.00 61 967.1
20260505212852 86 104 0.0 3.5 0.00 0.00 0.00 60 967.5
20260505211832 86 104 0.0 3.5 0.00 0.00 0.00 60 967.4
20260505210818 86 254 0.0 5.2 0.00 0.00 0.00 60 967.6
20260505204725 86 232 0.0 6.1 0.00 0.00 0.00 60 967.7
20260505203723 86 209 0.0 6.1 0.00 0.00 0.00 60 967.7
20260505201624 86 304 0.0 2.6 0.00 0.00 0.00 60 968.1
20260505200626 86 263 0.0 3.5 0.00 0.00 0.00 59 968.4
20260505195605 85 259 0.0 3.5 0.00 0.00 0.00 59 968.5
20260505194534 84 297 0.0 5.2 0.00 0.00 0.00 60 968.6
20260505192426 82 193 0.0 4.3 0.00 0.00 0.00 60 968.9
20260505191407 82 220 0.0 3.5 0.00 0.00 0.00 60 968.9
20260505190410 82 234 0.0 2.6 0.00 0.00 0.00 60 968.9
20260505184243 81 273 0.0 5.2 0.00 0.00 0.00 59 969.3
20260505183213 80 255 0.0 2.6 0.00 0.00 0.00 57 969.4
20260505182214 79 271 0.0 4.3 0.00 0.00 0.00 53 969.5
20260505181224 78 268 0.0 4.3 0.00 0.00 0.00 51 969.6
20260505180232 77 252 0.0 5.2 0.00 0.00 0.00 47 969.7
20260505175242 77 265 0.0 4.3 0.00 0.00 0.00 44 969.9
20260505173145 77 194 0.0 0.0 0.00 0.00 0.00 30 970.0
20260505172137 76 255 0.0 0.9 0.00 0.00 0.00 20 970.0
20260505171155 76 296 0.0 1.7 0.00 0.00 0.00 16 970.1
20260505164959 75 231 0.0 4.3 0.00 0.00 0.00 1 970.1
20260505163939 75 266 0.0 2.6 0.00 0.00 0.00 1 970.2
20260505162933 74 209 0.0 1.7 0.00 0.00 0.00 1 970.1
20260505161925 74 257 0.0 0.9 0.00 0.00 0.00 1 970.0
20260505160934 74 239 0.0 3.5 0.00 0.00 0.00 1 970.2
20260505153010 73 234 0.0 2.6 0.00 0.00 0.00 1 970.1
20260505152016 73 267 0.0 1.7 0.00 0.00 0.00 1 970.2
20260505151019 73 272 0.0 3.5 0.00 0.00 0.00 1 970.1
20260505124834 71 267 0.0 0.0 0.00 0.00 0.00 1 969.0